Timestamp (UTC),Temp / °C,Chill / °C,HIndex / °C,Humid%,Dewpt / °C,Wind / ms¯¹,HiWind / ms¯¹,Winddir / °,Rain / mm,RainRate / mmhr¯¹,Pressure / hPa,InsideTemp / °C,InsideHumid%,Radiation / Wm¯²,UV
2016-05-11 00:00:00,11.4,11.4,11.4,89.0,9.6,1.3,4.0,45,0.0,0.0,1000.7,17.1,62.0,0,0
2016-05-11 00:05:00,11.4,11.4,11.4,89.0,9.6,0.4,2.7,67.5,0.0,0.0,1000.7,17.1,62.0,0,0
2016-05-11 00:10:00,11.4,11.4,11.4,89.0,9.6,0.9,3.1,315,0.0,0.0,1000.7,17.2,62.0,0,0
2016-05-11 00:15:00,11.4,11.4,11.4,89.0,9.6,1.8,4.5,22.5,0.0,0.0,1000.6,17.2,62.0,0,0
2016-05-11 00:20:00,11.4,11.4,11.4,89.0,9.6,0.4,2.2,45,0.0,0.0,1000.6,17.2,62.0,0,0
2016-05-11 00:25:00,11.4,11.4,11.4,89.0,9.6,0.4,2.7,315,0.0,0.0,1000.5,17.2,62.0,0,0
2016-05-11 00:30:00,11.3,11.3,11.3,89.0,9.6,0.9,3.1,337.5,0.0,0.0,1000.5,17.2,62.0,0,0
2016-05-11 00:35:00,11.3,11.3,11.3,90.0,9.8,0.9,4.0,337.5,0.0,0.0,1000.5,17.2,62.0,0,0
2016-05-11 00:40:00,11.3,11.3,11.3,89.0,9.5,2.2,3.6,337.5,0.0,0.0,1000.3,17.2,61.0,0,0
2016-05-11 00:45:00,11.3,11.3,11.3,89.0,9.5,2.2,4.0,0,0.0,0.0,1000.2,17.2,61.0,0,0
2016-05-11 00:50:00,11.3,11.3,11.3,89.0,9.5,2.2,4.5,0,0.0,0.0,1000.3,17.3,61.0,0,0
2016-05-11 00:55:00,11.3,11.3,11.3,89.0,9.5,1.8,4.5,0,0.0,0.0,1000.2,17.3,61.0,0,0
2016-05-11 01:00:00,11.3,11.3,11.3,89.0,9.5,1.3,3.6,315,0.0,0.0,1000.1,17.3,61.0,0,0
2016-05-11 01:05:00,11.3,11.3,11.3,89.0,9.5,0.9,2.7,292.5,0.0,0.0,1000.2,17.3,61.0,0,0
2016-05-11 01:10:00,11.3,11.3,11.3,89.0,9.5,0.9,4.0,315,0.0,0.0,1000.2,17.2,61.0,0,0
2016-05-11 01:15:00,11.3,11.3,11.3,89.0,9.5,0.9,2.7,0,0.0,0.0,1000.1,17.2,61.0,0,0
2016-05-11 01:20:00,11.2,11.2,11.2,89.0,9.5,1.3,4.5,0,0.0,0.0,1000.2,17.1,61.0,0,0
2016-05-11 01:25:00,11.2,11.2,11.2,89.0,9.5,0.0,1.8,0,0.0,0.0,1000.2,17.1,61.0,0,0
2016-05-11 01:30:00,11.2,11.2,11.2,89.0,9.5,0.9,3.6,22.5,0.0,0.0,1000.2,17.1,61.0,0,0
2016-05-11 01:35:00,11.2,11.2,11.2,89.0,9.5,0.9,3.1,45,0.0,0.0,1000.2,16.9,61.0,0,0
2016-05-11 01:40:00,11.2,11.2,11.2,89.0,9.5,2.2,3.6,22.5,0.0,0.0,1000.2,16.9,61.0,0,0
2016-05-11 01:45:00,11.2,11.2,11.2,89.0,9.5,2.2,4.5,337.5,0.0,0.0,1000.0,16.9,61.0,0,0
2016-05-11 01:50:00,11.2,11.2,11.2,89.0,9.5,2.2,4.5,315,0.0,0.0,999.8,16.9,61.0,0,0
2016-05-11 01:55:00,11.2,11.2,11.2,89.0,9.5,2.7,4.9,337.5,0.0,0.0,999.8,17.2,61.0,0,0
2016-05-11 02:00:00,11.2,11.2,11.2,89.0,9.4,2.2,5.8,0,0.0,0.0,999.7,17.3,60.0,0,0
2016-05-11 02:05:00,11.2,11.2,11.2,89.0,9.4,2.2,6.7,45,0.0,0.0,999.5,17.2,60.0,0,0
2016-05-11 02:10:00,11.2,11.2,11.2,89.0,9.4,1.3,4.9,315,0.0,0.0,999.4,17.2,60.0,0,0
2016-05-11 02:15:00,11.1,11.1,11.1,89.0,9.4,1.8,6.3,22.5,0.0,0.0,999.3,17.2,60.0,0,0
2016-05-11 02:20:00,11.1,11.1,11.1,89.0,9.4,1.8,4.0,337.5,0.0,0.0,999.4,17.2,60.0,0,0
2016-05-11 02:25:00,11.1,11.1,11.1,89.0,9.4,1.3,5.4,45,0.0,0.0,999.4,17.2,60.0,0,0
2016-05-11 02:30:00,11.1,11.1,11.1,89.0,9.4,0.9,3.1,337.5,0.0,0.0,999.5,17.2,60.0,0,0
2016-05-11 02:35:00,11.2,11.2,11.2,89.0,9.4,0.9,2.2,135,0.0,0.0,999.6,17.2,60.0,0,0
2016-05-11 02:40:00,11.2,11.2,11.2,89.0,9.4,0.4,1.8,67.5,0.0,0.0,999.6,17.2,61.0,0,0
2016-05-11 02:45:00,11.2,11.2,11.2,89.0,9.4,0.9,2.7,67.5,0.0,0.0,999.5,17.1,60.0,0,0
2016-05-11 02:50:00,11.2,11.2,11.2,88.0,9.3,1.3,3.1,45,0.0,0.0,999.5,16.9,61.0,0,0
2016-05-11 02:55:00,11.2,11.2,11.2,88.0,9.3,0.4,2.2,315,0.0,0.0,999.4,16.9,60.0,0,0
2016-05-11 03:00:00,11.2,11.2,11.2,88.0,9.3,1.3,4.0,315,0.0,0.0,999.4,16.9,60.0,0,0
2016-05-11 03:05:00,11.2,11.2,11.2,88.0,9.3,1.3,4.0,67.5,0.0,0.0,999.4,17.1,60.0,0,0
2016-05-11 03:10:00,11.2,11.2,11.2,88.0,9.3,1.3,3.6,0,0.0,0.0,999.4,17.1,60.0,0,0
2016-05-11 03:15:00,11.2,11.2,11.2,88.0,9.3,1.8,4.0,315,0.0,0.0,999.3,17.2,60.0,0,0
2016-05-11 03:20:00,11.2,11.2,11.2,88.0,9.3,1.8,5.4,22.5,0.0,0.0,999.4,17.2,60.0,0,0
2016-05-11 03:25:00,11.2,11.2,11.2,88.0,9.3,1.3,4.9,337.5,0.0,0.0,999.3,17.2,60.0,0,0
2016-05-11 03:30:00,11.2,11.2,11.2,88.0,9.3,1.3,4.0,45,0.0,0.0,999.2,17.1,60.0,0,0
2016-05-11 03:35:00,11.2,11.2,11.2,88.0,9.3,2.2,4.5,315,0.0,0.0,999.3,17.1,60.0,0,0
2016-05-11 03:40:00,11.2,11.2,11.2,88.0,9.3,1.8,3.6,315,0.0,0.0,999.3,17.2,60.0,0,0
2016-05-11 03:45:00,11.2,11.2,11.2,88.0,9.3,0.4,2.2,270,0.0,0.0,999.3,17.2,60.0,0,0
2016-05-11 03:50:00,11.2,11.2,11.2,88.0,9.3,0.0,0.9,0,0.0,0.0,999.3,17.2,60.0,0,0
2016-05-11 03:55:00,11.2,11.2,11.2,88.0,9.3,0.0,0.9,0,0.0,0.0,999.4,17.1,60.0,0,0
2016-05-11 04:00:00,11.2,11.2,11.2,88.0,9.3,0.4,2.2,45,0.0,0.0,999.3,16.9,60.0,0,0
2016-05-11 04:05:00,11.2,11.2,11.2,88.0,9.3,0.9,4.0,22.5,0.0,0.0,999.3,16.8,60.0,0,0
2016-05-11 04:10:00,11.1,11.1,11.1,87.0,9.0,2.2,3.6,337.5,0.0,0.0,999.2,16.9,60.0,0,0
2016-05-11 04:15:00,11.1,11.1,11.1,87.0,9.0,2.2,4.9,0,0.0,0.0,999.4,16.9,60.0,0,0
2016-05-11 04:20:00,11.1,11.1,11.1,87.0,9.0,0.9,2.7,22.5,0.0,0.0,999.5,17.1,60.0,0,0
2016-05-11 04:25:00,11.1,11.1,11.1,87.0,9.0,1.8,4.0,22.5,0.0,0.0,999.4,16.9,60.0,3,0
2016-05-11 04:30:00,11.1,11.1,11.1,87.0,9.0,1.3,3.6,315,0.0,0.0,999.4,16.9,60.0,6,0
2016-05-11 04:35:00,11.1,11.1,11.1,87.0,9.0,1.8,3.6,0,0.0,0.0,999.4,16.9,60.0,8,0
2016-05-11 04:40:00,11.1,11.1,11.1,87.0,9.0,1.8,4.5,22.5,0.0,0.0,999.3,17.1,60.0,12,0
2016-05-11 04:45:00,11.0,11.0,11.0,87.0,8.9,2.2,4.9,0,0.0,0.0,999.4,17.1,60.0,15,0
2016-05-11 04:50:00,11.0,11.0,11.0,87.0,8.9,2.2,5.8,0,0.0,0.0,999.3,16.9,60.0,17,0
2016-05-11 04:55:00,10.9,10.9,10.9,87.0,8.9,2.7,4.9,315,0.0,0.0,999.3,16.9,60.0,17,0
2016-05-11 05:00:00,10.9,10.9,10.9,87.0,8.9,3.1,4.9,0,0.0,0.0,999.4,16.9,60.0,18,0
2016-05-11 05:05:00,10.9,10.9,10.9,87.0,8.8,2.7,5.4,0,0.0,0.0,999.3,16.9,60.0,19,0
2016-05-11 05:10:00,10.9,10.9,10.9,88.0,9.0,2.2,4.9,0,0.0,0.0,999.2,16.9,59.0,22,0
2016-05-11 05:15:00,10.8,10.8,10.8,88.0,8.9,2.7,5.8,337.5,0.0,0.0,999.2,16.9,59.0,24,0
2016-05-11 05:20:00,10.8,10.8,10.8,88.0,8.9,2.2,5.4,315,0.0,0.0,999.3,16.9,60.0,27,0
2016-05-11 05:25:00,10.8,10.8,10.8,88.0,8.9,2.7,4.9,337.5,0.0,0.0,999.2,16.9,60.0,33,0
2016-05-11 05:30:00,10.8,10.8,10.8,88.0,8.9,2.2,4.0,0,0.0,0.0,999.3,16.8,60.0,36,0
2016-05-11 05:35:00,10.8,10.8,10.8,88.0,8.9,2.2,4.9,0,0.0,0.0,999.3,16.8,60.0,35,0
2016-05-11 05:40:00,10.8,10.8,10.8,88.0,8.9,2.7,5.4,337.5,0.0,0.0,999.4,16.7,60.0,35,0
2016-05-11 05:45:00,10.8,10.8,10.8,88.0,8.9,1.8,3.6,45,0.0,0.0,999.2,16.6,60.0,23,0
2016-05-11 05:50:00,10.8,10.8,10.8,88.0,8.9,0.9,3.1,337.5,0.0,0.0,999.2,16.6,60.0,27,0
2016-05-11 05:55:00,10.9,10.9,10.9,88.0,9.0,1.8,4.5,22.5,0.0,0.0,999.3,16.6,60.0,40,0
2016-05-11 06:00:00,10.9,10.9,10.9,88.0,9.0,1.3,3.1,337.5,0.0,0.0,999.2,16.7,60.0,35,0
2016-05-11 06:05:00,10.9,10.9,10.9,88.0,9.0,2.7,5.8,337.5,0.0,0.0,999.3,16.7,60.0,32,0
2016-05-11 06:10:00,10.9,10.9,10.9,88.0,9.0,2.2,4.0,0,0.0,0.0,999.3,16.7,60.0,25,0
2016-05-11 06:15:00,10.9,10.9,10.9,88.0,9.0,0.4,3.1,45,0.0,0.0,999.3,16.6,60.0,19,0
2016-05-11 06:20:00,10.9,10.9,10.9,88.0,9.0,0.4,3.1,0,0.1,0.0,999.6,16.6,61.0,21,0
2016-05-11 06:25:00,10.9,10.9,10.9,88.0,9.0,1.8,4.9,337.5,0.0,0.0,999.5,16.4,61.0,36,0
2016-05-11 06:30:00,10.9,10.9,10.9,88.0,9.0,1.8,4.5,22.5,0.0,0.0,999.5,16.4,61.0,40,0
2016-05-11 06:35:00,10.9,10.9,10.9,88.0,9.0,1.8,4.0,22.5,0.0,0.0,999.5,16.4,61.0,44,0
2016-05-11 06:40:00,10.9,10.9,10.9,88.0,9.0,2.2,4.9,315,0.0,0.0,999.5,16.4,61.0,43,0
2016-05-11 06:45:00,10.9,10.9,10.9,88.0,9.0,2.2,4.9,337.5,0.0,0.0,999.5,16.4,61.0,56,0
2016-05-11 06:50:00,10.9,10.9,10.9,88.0,9.0,1.3,3.6,0,0.0,0.0,999.5,16.6,62.0,66,0
2016-05-11 06:55:00,10.9,10.9,10.9,88.0,9.0,2.2,5.4,0,0.0,0.0,999.4,16.6,61.0,113,0.4
2016-05-11 07:00:00,10.9,10.9,10.9,89.0,9.2,2.2,4.5,315,0.0,0.0,999.3,16.7,61.0,148,0.7
2016-05-11 07:05:00,11.0,11.0,11.0,89.0,9.3,2.2,4.0,337.5,0.0,0.0,999.4,16.9,61.0,159,0.8
2016-05-11 07:10:00,11.1,11.1,11.1,89.0,9.3,2.2,4.5,315,0.0,0.0,999.5,16.9,61.0,145,0.8
2016-05-11 07:15:00,11.1,11.1,11.1,89.0,9.3,1.8,4.5,337.5,0.0,0.0,999.6,17.1,61.0,64,0.2
2016-05-11 07:20:00,11.1,11.1,11.1,89.0,9.4,1.3,3.6,22.5,0.0,0.0,999.5,16.9,61.0,52,0
2016-05-11 07:25:00,11.1,11.1,11.1,89.0,9.4,2.2,4.9,45,0.0,0.0,999.7,16.9,61.0,63,0
2016-05-11 07:30:00,11.1,11.1,11.1,89.0,9.4,1.8,4.5,45,0.0,0.0,1000.0,16.8,61.0,84,0.3
2016-05-11 07:35:00,11.2,11.2,11.2,89.0,9.4,2.2,4.9,0,0.0,0.0,999.8,16.8,61.0,82,0.1
2016-05-11 07:40:00,11.2,11.2,11.2,89.0,9.4,2.2,4.0,45,0.0,0.0,999.7,16.8,61.0,81,0.2
2016-05-11 07:45:00,11.2,11.2,11.2,89.0,9.5,1.8,5.4,337.5,0.0,0.0,999.5,16.9,61.0,114,0.6
2016-05-11 07:50:00,11.3,11.3,11.3,89.0,9.5,2.2,4.9,337.5,0.0,0.0,999.6,16.9,61.0,116,0.7
2016-05-11 07:55:00,11.3,11.3,11.3,89.0,9.6,1.8,4.0,0,0.0,0.0,999.5,17.1,61.0,109,0.6
2016-05-11 08:00:00,11.4,11.4,11.4,92.0,10.1,2.2,4.5,0,0.0,0.0,999.6,17.2,61.0,126,0.7
2016-05-11 08:05:00,11.5,11.5,11.5,89.0,9.7,2.2,3.6,315,0.0,0.0,999.5,17.2,61.0,139,0.8
2016-05-11 08:10:00,11.6,11.6,11.6,89.0,9.8,2.2,5.4,337.5,0.0,0.0,999.6,17.4,60.0,134,0.7
2016-05-11 08:15:00,11.6,11.6,11.6,89.0,9.9,2.7,5.8,0,0.0,0.0,999.5,17.5,60.0,147,0.8
2016-05-11 08:20:00,11.7,11.7,11.7,89.0,9.9,2.2,4.9,337.5,0.0,0.0,999.4,17.5,60.0,131,0.8
2016-05-11 08:25:00,11.7,11.7,11.7,89.0,10.0,1.8,3.6,22.5,0.0,0.0,999.5,17.4,60.0,108,0.6
2016-05-11 08:30:00,11.8,11.8,11.8,89.0,10.0,1.8,4.0,337.5,0.0,0.0,999.4,17.4,60.0,97,0.5
2016-05-11 08:35:00,11.8,11.8,11.8,89.0,10.1,2.2,4.9,337.5,0.0,0.0,999.3,17.5,60.0,107,0.6
2016-05-11 08:40:00,11.9,11.9,11.9,88.0,10.0,2.7,4.9,292.5,0.0,0.0,999.3,17.7,60.0,116,0.6
2016-05-11 08:45:00,12.0,12.0,12.0,88.0,10.1,2.2,5.4,0,0.0,0.0,999.3,17.8,60.0,114,0.7
2016-05-11 08:50:00,12.1,12.1,12.1,88.0,10.1,2.7,5.8,22.5,0.0,0.0,999.3,17.9,59.0,125,0.8
2016-05-11 08:55:00,12.2,12.2,12.2,88.0,10.2,2.2,4.9,0,0.0,0.0,999.3,18.1,59.0,100,0.6
2016-05-11 09:00:00,12.2,12.2,12.2,88.0,10.3,1.8,4.9,315,0.0,0.0,999.3,18.1,59.0,95,0.5
2016-05-11 09:05:00,12.3,12.3,12.3,88.0,10.3,2.2,5.4,337.5,0.0,0.0,999.3,18.1,59.0,107,0.6
2016-05-11 09:10:00,12.4,12.4,12.4,87.0,10.3,1.8,4.0,0,0.0,0.0,999.2,18.3,59.0,108,0.6
2016-05-11 09:15:00,12.4,12.4,12.4,87.0,10.3,2.7,4.5,0,0.0,0.0,999.2,18.3,59.0,97,0.5
2016-05-11 09:20:00,12.5,12.5,12.5,87.0,10.4,1.3,4.0,45,0.0,0.0,999.2,18.3,59.0,100,0.5
2016-05-11 09:25:00,12.6,12.6,12.6,87.0,10.4,1.8,4.9,315,0.0,0.0,999.1,18.4,59.0,107,0.4
2016-05-11 09:30:00,12.7,12.7,12.7,87.0,10.6,1.3,3.6,45,0.0,0.0,999.0,18.4,59.0,101,0.4
2016-05-11 09:35:00,12.7,12.7,12.7,86.0,10.4,2.2,4.9,337.5,0.0,0.0,999.0,18.6,59.0,104,0.4
2016-05-11 09:40:00,12.8,12.8,12.8,86.0,10.5,2.2,4.9,337.5,0.0,0.0,998.8,18.7,58.0,110,0.6
2016-05-11 09:45:00,12.8,12.8,12.8,86.0,10.5,1.8,7.2,337.5,0.0,0.0,998.7,18.8,58.0,129,0.7
2016-05-11 09:50:00,12.9,12.9,12.9,86.0,10.7,1.3,7.2,315,0.0,0.0,998.7,19.0,58.0,205,1.3
2016-05-11 09:55:00,13.1,13.1,13.1,86.0,10.8,1.3,4.0,315,0.1,0.0,998.7,19.3,58.0,267,1.7
2016-05-11 10:00:00,13.7,13.7,13.7,86.0,11.4,0.4,3.6,315,0.0,0.0,998.8,19.4,58.0,334,2
2016-05-11 10:05:00,14.2,14.2,14.2,83.0,11.3,2.2,4.0,315,0.0,0.0,998.6,19.7,57.0,371,2.3
2016-05-11 10:10:00,14.7,14.7,14.7,83.0,11.8,1.8,5.4,45,0.0,0.0,998.6,19.8,57.0,439,2.7
2016-05-11 10:15:00,15.0,15.0,15.0,81.0,11.8,2.7,5.4,22.5,0.0,0.0,998.4,20.1,56.0,459,3.1
2016-05-11 10:20:00,15.4,15.4,15.4,80.0,12.0,3.1,7.2,45,0.0,0.0,998.4,20.2,56.0,705,4.1
2016-05-11 10:25:00,15.8,15.8,15.8,78.0,11.9,3.1,6.7,0,0.0,0.0,998.4,20.3,56.0,676,4
2016-05-11 10:30:00,16.2,16.2,16.2,77.0,12.1,2.7,4.9,45,0.0,0.0,998.5,20.5,55.0,717,4.2
2016-05-11 10:35:00,16.5,16.5,16.5,76.0,12.3,3.1,5.8,22.5,0.0,0.0,998.4,20.5,55.0,592,3.9
2016-05-11 10:40:00,16.4,16.4,16.4,75.0,12.0,2.7,4.9,0,0.0,0.0,998.3,20.7,55.0,504,3.5
2016-05-11 10:45:00,16.7,16.7,16.7,75.0,12.3,3.1,5.8,45,0.0,0.0,998.3,20.7,55.0,722,4.4
2016-05-11 10:50:00,17.1,17.1,17.1,75.0,12.6,3.1,5.8,45,0.0,0.0,998.3,20.8,55.0,694,4.3
2016-05-11 10:55:00,17.2,17.2,17.2,74.0,12.5,3.6,6.7,22.5,0.0,0.0,998.3,20.9,56.0,673,4.2
2016-05-11 11:00:00,17.1,17.1,17.1,75.0,12.6,3.6,6.3,45,0.0,0.0,998.2,20.9,56.0,421,3.3
2016-05-11 11:05:00,17.2,17.2,17.2,74.0,12.5,3.1,6.7,22.5,0.0,0.0,998.2,20.9,56.0,414,3.2
2016-05-11 11:10:00,17.1,17.1,17.1,75.0,12.6,3.6,6.3,45,0.0,0.0,998.0,20.9,55.0,458,3.3
2016-05-11 11:15:00,17.4,17.4,17.4,74.0,12.7,2.2,6.7,337.5,0.0,0.0,998.2,21.1,55.0,490,3.4
2016-05-11 11:20:00,17.5,17.5,17.5,75.0,13.0,3.1,5.8,0,0.0,0.0,998.0,21.2,55.0,571,3.7
2016-05-11 11:25:00,17.8,17.8,17.8,74.0,13.1,1.8,5.4,337.5,0.0,0.0,998.0,21.4,55.0,530,3.8
2016-05-11 11:30:00,17.9,17.9,17.9,74.0,13.2,2.7,6.3,0,0.0,0.0,998.1,21.6,55.0,607,4
2016-05-11 11:35:00,18.3,18.3,18.3,72.0,13.2,2.2,5.4,22.5,0.0,0.0,998.0,21.7,54.0,684,4.6
2016-05-11 11:40:00,18.4,18.4,18.4,70.0,12.8,3.6,8.5,22.5,0.0,0.0,997.9,21.8,53.0,826,5.3
2016-05-11 11:45:00,18.7,18.7,18.7,70.0,13.1,3.1,8.0,22.5,0.0,0.0,997.9,21.8,54.0,815,5.3
2016-05-11 11:50:00,19.2,19.2,19.2,70.0,13.6,2.7,5.4,0,0.0,0.0,997.9,22.0,54.0,758,5
2016-05-11 11:55:00,19.1,19.1,19.1,68.0,13.1,3.6,8.0,22.5,0.0,0.0,997.9,22.0,54.0,582,4.2
2016-05-11 12:00:00,18.7,18.7,18.7,71.0,13.4,3.1,6.3,0,0.0,0.0,997.8,22.0,54.0,488,3.6
2016-05-11 12:05:00,18.7,18.7,18.7,68.0,12.6,4.0,9.4,22.5,0.0,0.0,997.9,22.0,52.0,459,3.5
2016-05-11 12:10:00,18.6,18.6,18.6,68.0,12.6,3.6,7.2,0,0.0,0.0,997.9,22.0,52.0,447,3.3
2016-05-11 12:15:00,19.0,19.0,19.0,67.0,12.7,2.2,5.8,45,0.0,0.0,998.0,22.2,52.0,430,3.1
2016-05-11 12:20:00,19.3,19.3,19.3,66.0,12.8,1.8,4.9,45,0.0,0.0,997.7,22.4,52.0,453,3.3
2016-05-11 12:25:00,19.2,19.2,19.2,64.0,12.2,2.7,6.7,45,0.0,0.0,997.9,22.6,50.0,302,2.3
2016-05-11 12:30:00,18.6,18.6,18.6,65.0,11.8,3.1,6.7,22.5,0.0,0.0,997.9,22.7,49.0,271,1.8
2016-05-11 12:35:00,18.2,18.2,18.2,66.0,11.8,3.6,6.7,22.5,0.0,0.0,997.9,22.7,49.0,215,1.2
2016-05-11 12:40:00,17.9,17.9,17.9,69.0,12.2,2.2,5.8,90,0.0,0.0,997.9,22.6,50.0,204,1.1
2016-05-11 12:45:00,17.8,17.8,17.8,71.0,12.4,1.3,4.5,22.5,0.0,0.0,997.9,22.7,50.0,214,1.1
2016-05-11 12:50:00,17.9,17.9,17.9,72.0,12.8,0.4,2.7,22.5,0.0,0.0,998.0,22.7,51.0,236,1.3
2016-05-11 12:55:00,17.8,17.8,17.8,72.0,12.7,1.8,4.9,45,0.0,0.0,997.9,22.8,50.0,244,1.4
2016-05-11 13:00:00,17.7,17.7,17.7,73.0,12.8,1.8,4.0,22.5,0.0,0.0,997.9,22.8,50.0,262,1.5
2016-05-11 13:05:00,17.7,17.7,17.7,71.0,12.3,0.9,4.0,90,0.0,0.0,997.9,22.8,50.0,256,1.5
2016-05-11 13:10:00,17.5,17.5,17.5,70.0,12.0,2.2,5.4,0,0.0,0.0,998.0,22.8,49.0,297,1.8
2016-05-11 13:15:00,17.6,17.6,17.6,71.0,12.2,0.9,3.6,337.5,0.0,0.0,997.8,22.9,50.0,439,2.7
2016-05-11 13:20:00,17.9,17.9,17.9,69.0,12.1,2.2,5.8,90,0.0,0.0,997.9,23.1,49.0,396,2.6
2016-05-11 13:25:00,17.9,17.9,17.9,70.0,12.4,1.3,4.9,67.5,0.0,0.0,997.9,23.1,49.0,387,2.5
2016-05-11 13:30:00,18.0,18.0,18.0,70.0,12.4,0.9,4.5,337.5,0.0,0.0,998.0,23.1,49.0,389,2.4
2016-05-11 13:35:00,17.9,17.9,17.9,70.0,12.3,1.8,4.5,90,0.0,0.0,998.1,23.2,49.0,317,1.9
2016-05-11 13:40:00,17.8,17.8,17.8,70.0,12.2,1.8,4.5,22.5,0.0,0.0,998.0,23.2,49.0,302,1.7
2016-05-11 13:45:00,17.6,17.6,17.6,71.0,12.2,2.2,4.9,22.5,0.0,0.0,998.0,23.2,48.0,262,1.5
2016-05-11 13:50:00,17.6,17.6,17.6,71.0,12.2,1.8,5.4,0,0.0,0.0,998.0,23.1,49.0,325,1.9
2016-05-11 13:55:00,17.6,17.6,17.6,71.0,12.2,2.7,4.9,22.5,0.0,0.0,998.0,23.1,49.0,372,2.2
2016-05-11 14:00:00,17.8,17.8,17.8,70.0,12.3,1.8,4.5,337.5,0.0,0.0,998.0,23.2,49.0,392,2.3
2016-05-11 14:05:00,17.8,17.8,17.8,70.0,12.2,2.7,6.3,0,0.0,0.0,997.9,23.2,48.0,436,2.6
2016-05-11 14:10:00,17.8,17.8,17.8,69.0,12.1,2.7,5.8,0,0.0,0.0,997.9,23.2,48.0,426,2.4
2016-05-11 14:15:00,17.9,17.9,17.9,70.0,12.4,2.2,6.3,45,0.0,0.0,997.9,23.1,49.0,373,1.9
2016-05-11 14:20:00,18.2,18.2,18.2,69.0,12.4,1.3,4.9,45,0.0,0.0,998.0,23.1,48.0,338,1.9
2016-05-11 14:25:00,17.9,17.9,17.9,69.0,12.1,2.2,5.8,45,0.0,0.0,997.9,23.1,48.0,361,2
2016-05-11 14:30:00,17.4,17.4,17.4,70.0,11.9,3.1,6.7,0,0.0,0.0,998.0,23.1,48.0,293,1.6
2016-05-11 14:35:00,17.1,17.1,17.1,71.0,11.8,2.7,5.8,0,0.0,0.0,997.8,23.1,48.0,270,1.4
2016-05-11 14:40:00,17.2,17.2,17.2,72.0,12.1,1.3,3.6,0,0.0,0.0,997.9,23.1,49.0,256,1.3
2016-05-11 14:45:00,17.1,17.1,17.1,72.0,12.0,2.2,4.5,45,0.0,0.0,998.0,23.1,49.0,276,1.4
2016-05-11 14:50:00,16.8,16.8,16.8,73.0,11.9,2.7,5.4,45,0.0,0.0,998.3,22.9,49.0,270,1.4
2016-05-11 14:55:00,16.4,16.4,16.4,74.0,11.8,2.7,4.9,45,0.0,0.0,998.1,22.8,49.0,260,1.2
2016-05-11 15:00:00,16.4,16.4,16.4,74.0,11.7,2.2,4.0,45,0.0,0.0,998.2,22.8,49.0,178,0.6
2016-05-11 15:05:00,16.4,16.4,16.4,74.0,11.7,1.8,4.0,0,0.0,0.0,998.1,22.7,49.0,111,0
2016-05-11 15:10:00,16.3,16.3,16.3,74.0,11.6,1.8,4.5,0,0.0,0.0,998.0,22.4,49.0,89,0
2016-05-11 15:15:00,16.2,16.2,16.2,74.0,11.5,2.7,4.5,0,0.0,0.0,998.0,22.4,50.0,80,0
2016-05-11 15:20:00,15.9,15.9,15.9,75.0,11.5,1.8,4.9,45,0.0,0.0,997.9,22.2,50.0,78,0
2016-05-11 15:25:00,15.7,15.7,15.7,76.0,11.5,0.9,3.6,45,0.0,0.0,998.1,22.1,51.0,63,0
2016-05-11 15:30:00,15.6,15.6,15.6,77.0,11.6,0.9,3.6,67.5,0.0,0.0,998.2,21.9,51.0,54,0
2016-05-11 15:35:00,15.4,15.4,15.4,77.0,11.4,1.8,4.5,22.5,0.0,0.0,998.1,21.8,51.0,44,0
2016-05-11 15:40:00,15.3,15.3,15.3,77.0,11.3,1.3,4.5,337.5,0.0,0.0,998.1,21.6,51.0,53,0
2016-05-11 15:45:00,15.3,15.3,15.3,77.0,11.3,1.8,4.0,22.5,0.0,0.0,998.0,21.5,52.0,79,0
2016-05-11 15:50:00,15.2,15.2,15.2,78.0,11.4,1.3,3.6,22.5,0.0,0.0,998.1,21.3,52.0,108,0
2016-05-11 15:55:00,15.3,15.3,15.3,78.0,11.5,1.3,3.6,22.5,0.0,0.0,998.0,21.4,52.0,143,0.3
2016-05-11 16:00:00,15.3,15.3,15.3,78.0,11.5,1.8,4.0,22.5,0.0,0.0,997.9,21.4,52.0,155,0.5
2016-05-11 16:05:00,15.3,15.3,15.3,78.0,11.5,1.8,4.5,0,0.0,0.0,997.9,21.4,52.0,174,0.6
2016-05-11 16:10:00,15.3,15.3,15.3,78.0,11.5,2.2,4.5,45,0.0,0.0,997.9,21.4,52.0,178,0.6
2016-05-11 16:15:00,15.4,15.4,15.4,78.0,11.6,2.2,4.5,22.5,0.0,0.0,997.8,21.5,52.0,179,0.6
2016-05-11 16:20:00,15.4,15.4,15.4,77.0,11.4,1.8,4.9,45,0.0,0.0,997.8,21.5,52.0,202,0.7
2016-05-11 16:25:00,15.5,15.5,15.5,77.0,11.5,2.7,4.9,45,0.0,0.0,997.8,21.4,52.0,261,0.8
2016-05-11 16:30:00,15.6,15.6,15.6,77.0,11.6,2.7,4.9,22.5,0.0,0.0,997.8,21.3,52.0,230,0.8
2016-05-11 16:35:00,15.7,15.7,15.7,77.0,11.6,2.7,5.4,45,0.0,0.0,997.8,21.2,52.0,360,1
2016-05-11 16:40:00,15.8,15.8,15.8,77.0,11.8,2.2,4.5,22.5,0.0,0.0,997.8,21.3,52.0,312,0.9
2016-05-11 16:45:00,15.8,15.8,15.8,76.0,11.6,2.2,5.8,22.5,0.0,0.0,997.8,21.3,52.0,272,0.8
2016-05-11 16:50:00,15.8,15.8,15.8,76.0,11.6,2.7,5.8,22.5,0.0,0.0,997.8,21.2,52.0,289,0.7
2016-05-11 16:55:00,15.8,15.8,15.8,76.0,11.6,2.2,6.3,22.5,0.0,0.0,997.9,21.1,53.0,219,0.5
2016-05-11 17:00:00,15.8,15.8,15.8,75.0,11.4,2.2,4.9,22.5,0.0,0.0,997.9,21.1,53.0,163,0
2016-05-11 17:05:00,15.7,15.7,15.7,75.0,11.3,2.2,6.3,292.5,0.0,0.0,997.9,21.1,52.0,353,0.6
2016-05-11 17:10:00,15.7,15.7,15.7,75.0,11.2,3.1,6.3,0,0.0,0.0,998.0,21.1,52.0,214,0
2016-05-11 17:15:00,15.3,15.3,15.3,75.0,10.9,3.6,6.7,22.5,0.0,0.0,997.9,20.9,52.0,117,0
2016-05-11 17:20:00,15.0,15.0,15.0,76.0,10.8,3.1,6.3,0,0.0,0.0,998.1,20.8,52.0,88,0
2016-05-11 17:25:00,15.0,15.0,15.0,77.0,11.0,2.7,5.8,0,0.0,0.0,998.0,20.7,52.0,64,0
2016-05-11 17:30:00,14.9,14.9,14.9,77.0,10.9,1.3,3.1,0,0.0,0.0,998.1,20.6,53.0,49,0
2016-05-11 17:35:00,14.8,14.8,14.8,78.0,11.0,1.8,5.4,22.5,0.0,0.0,998.0,20.5,53.0,44,0
2016-05-11 17:40:00,14.7,14.7,14.7,78.0,10.9,1.8,4.5,67.5,0.0,0.0,998.1,20.5,53.0,50,0
2016-05-11 17:45:00,14.6,14.6,14.6,78.0,10.8,1.3,4.0,0,0.0,0.0,998.2,20.4,53.0,57,0
2016-05-11 17:50:00,14.4,14.4,14.4,78.0,10.7,2.2,4.9,45,0.0,0.0,998.0,20.3,53.0,64,0
2016-05-11 17:55:00,14.3,14.3,14.3,78.0,10.5,1.8,5.8,0,0.0,0.0,998.1,20.2,53.0,61,0
2016-05-11 18:00:00,14.2,14.2,14.2,79.0,10.6,1.3,3.6,22.5,0.0,0.0,998.0,20.2,53.0,54,0
2016-05-11 18:05:00,14.2,14.2,14.2,79.0,10.6,2.7,4.9,22.5,0.0,0.0,998.1,20.1,54.0,47,0
2016-05-11 18:10:00,14.0,14.0,14.0,79.0,10.4,2.7,5.8,0,0.0,0.0,998.2,19.9,54.0,44,0
2016-05-11 18:15:00,13.8,13.8,13.8,79.0,10.3,2.7,6.3,22.5,0.0,0.0,998.0,19.7,54.0,43,0
2016-05-11 18:20:00,13.8,13.8,13.8,79.0,10.2,1.8,5.4,45,0.0,0.0,998.0,19.6,54.0,39,0
2016-05-11 18:25:00,13.7,13.7,13.7,80.0,10.3,1.8,4.5,45,0.0,0.0,998.0,19.6,54.0,32,0
2016-05-11 18:30:00,13.7,13.7,13.7,80.0,10.3,1.8,5.4,337.5,0.0,0.0,998.1,19.6,55.0,33,0
2016-05-11 18:35:00,13.7,13.7,13.7,80.0,10.3,2.2,4.5,22.5,0.0,0.0,998.2,19.4,55.0,30,0
2016-05-11 18:40:00,13.7,13.7,13.7,80.0,10.3,0.9,4.5,22.5,0.0,0.0,998.2,19.3,55.0,24,0
2016-05-11 18:45:00,13.7,13.7,13.7,81.0,10.5,0.9,3.1,45,0.0,0.0,998.2,19.4,55.0,20,0
2016-05-11 18:50:00,13.7,13.7,13.7,81.0,10.5,2.2,4.5,45,0.0,0.0,998.2,19.4,55.0,18,0
2016-05-11 18:55:00,13.6,13.6,13.6,80.0,10.2,2.2,4.5,0,0.0,0.0,998.3,19.3,55.0,13,0
2016-05-11 19:00:00,13.6,13.6,13.6,81.0,10.4,0.9,4.0,22.5,0.0,0.0,998.2,19.2,55.0,12,0
2016-05-11 19:05:00,13.6,13.6,13.6,81.0,10.4,1.3,4.0,0,0.0,0.0,998.3,19.2,55.0,12,0
2016-05-11 19:10:00,13.6,13.6,13.6,81.0,10.4,1.3,4.0,337.5,0.0,0.0,998.3,19.2,56.0,11,0
2016-05-11 19:15:00,13.5,13.5,13.5,81.0,10.3,1.8,4.5,45,0.0,0.0,998.4,19.2,56.0,9,0
2016-05-11 19:20:00,13.4,13.4,13.4,81.0,10.2,1.3,4.0,45,0.0,0.0,998.5,19.1,56.0,6,0
2016-05-11 19:25:00,13.4,13.4,13.4,81.0,10.2,1.8,3.6,292.5,0.0,0.0,998.4,19.1,56.0,5,0
2016-05-11 19:30:00,13.4,13.4,13.4,81.0,10.2,2.2,4.5,0,0.0,0.0,998.5,19.1,56.0,0,0
2016-05-11 19:35:00,13.3,13.3,13.3,81.0,10.1,1.8,4.9,45,0.0,0.0,998.5,18.9,56.0,0,0
2016-05-11 19:40:00,13.3,13.3,13.3,82.0,10.3,1.3,3.6,0,0.0,0.0,998.6,18.8,56.0,0,0
2016-05-11 19:45:00,13.3,13.3,13.3,82.0,10.3,1.8,3.1,0,0.0,0.0,998.6,18.7,57.0,0,0
2016-05-11 19:50:00,13.3,13.3,13.3,82.0,10.3,2.7,4.5,22.5,0.0,0.0,998.6,18.8,57.0,0,0
2016-05-11 19:55:00,13.3,13.3,13.3,82.0,10.3,2.2,3.6,22.5,0.0,0.0,998.5,18.7,57.0,0,0
2016-05-11 20:00:00,13.2,13.2,13.2,83.0,10.4,1.8,5.4,22.5,0.0,0.0,998.6,18.7,57.0,0,0
2016-05-11 20:05:00,13.2,13.2,13.2,82.0,10.2,2.2,4.9,0,0.0,0.0,998.7,18.8,57.0,0,0
2016-05-11 20:10:00,13.0,13.0,13.0,82.0,10.0,2.2,5.8,45,0.0,0.0,998.7,18.7,57.0,0,0
2016-05-11 20:15:00,12.8,12.8,12.8,82.0,9.8,3.1,5.8,22.5,0.0,0.0,998.8,18.5,57.0,0,0
2016-05-11 20:20:00,12.7,12.7,12.7,83.0,9.9,2.2,4.9,45,0.0,0.0,998.7,18.3,57.0,0,0
2016-05-11 20:25:00,12.6,12.6,12.6,83.0,9.8,2.7,5.4,0,0.0,0.0,998.8,18.3,57.0,0,0
2016-05-11 20:30:00,12.6,12.6,12.6,83.0,9.7,0.9,3.6,67.5,0.0,0.0,999.0,18.2,57.0,0,0
2016-05-11 20:35:00,12.5,12.5,12.5,83.0,9.7,1.8,4.5,67.5,0.0,0.0,998.9,18.2,57.0,0,0
2016-05-11 20:40:00,12.4,12.4,12.4,83.0,9.6,1.3,4.5,45,0.0,0.0,999.1,18.1,57.0,0,0
2016-05-11 20:45:00,12.3,12.3,12.3,83.0,9.5,1.3,4.9,337.5,0.0,0.0,999.1,18.1,57.0,0,0
2016-05-11 20:50:00,12.3,12.3,12.3,84.0,9.7,1.8,4.5,0,0.0,0.0,999.0,18.1,58.0,0,0
2016-05-11 20:55:00,12.2,12.2,12.2,84.0,9.6,2.2,4.5,315,0.0,0.0,999.0,18.1,58.0,0,0
2016-05-11 21:00:00,12.2,12.2,12.2,84.0,9.5,2.2,4.9,337.5,0.0,0.0,999.0,17.9,58.0,0,0
2016-05-11 21:05:00,12.1,12.1,12.1,84.0,9.4,2.7,4.9,22.5,0.0,0.0,999.0,17.9,58.0,0,0
2016-05-11 21:10:00,12.0,12.0,12.0,84.0,9.4,1.8,3.1,0,0.0,0.0,999.1,17.9,58.0,0,0
2016-05-11 21:15:00,11.9,11.9,11.9,85.0,9.4,1.8,4.5,0,0.0,0.0,999.0,17.9,58.0,0,0
2016-05-11 21:20:00,11.8,11.8,11.8,85.0,9.4,1.3,3.6,337.5,0.0,0.0,998.9,17.8,58.0,0,0
2016-05-11 21:25:00,11.8,11.8,11.8,85.0,9.3,2.7,5.8,337.5,0.0,0.0,998.9,17.8,58.0,0,0
2016-05-11 21:30:00,11.7,11.7,11.7,85.0,9.2,2.2,5.4,0,0.0,0.0,999.1,17.8,58.0,0,0
2016-05-11 21:35:00,11.6,11.6,11.6,86.0,9.3,0.9,3.6,292.5,0.0,0.0,999.2,17.8,58.0,0,0
2016-05-11 21:40:00,11.6,11.6,11.6,86.0,9.3,0.4,1.8,292.5,0.0,0.0,999.2,17.7,58.0,0,0
2016-05-11 21:45:00,11.6,11.6,11.6,86.0,9.3,1.3,3.1,292.5,0.0,0.0,999.2,17.6,59.0,0,0
2016-05-11 21:50:00,11.5,11.5,11.5,86.0,9.2,2.2,6.3,337.5,0.0,0.0,999.1,17.6,59.0,0,0
2016-05-11 21:55:00,11.4,11.4,11.4,86.0,9.2,2.2,4.9,22.5,0.0,0.0,999.2,17.6,59.0,0,0
2016-05-11 22:00:00,11.4,11.4,11.4,86.0,9.1,1.3,4.0,315,0.0,0.0,999.1,17.6,59.0,0,0
2016-05-11 22:05:00,11.4,11.4,11.4,86.0,9.1,1.3,3.6,22.5,0.0,0.0,999.0,17.5,59.0,0,0
2016-05-11 22:10:00,11.3,11.3,11.3,87.0,9.2,2.2,4.9,0,0.0,0.0,999.0,17.5,59.0,0,0
2016-05-11 22:15:00,11.3,11.3,11.3,87.0,9.2,0.9,2.7,0,0.0,0.0,999.1,17.5,59.0,0,0
2016-05-11 22:20:00,11.3,11.3,11.3,87.0,9.2,1.3,4.9,0,0.0,0.0,999.1,17.5,59.0,0,0
2016-05-11 22:25:00,11.3,11.3,11.3,87.0,9.2,1.3,3.6,0,0.0,0.0,999.3,17.4,59.0,0,0
2016-05-11 22:30:00,11.3,11.3,11.3,87.0,9.2,2.7,4.9,315,0.0,0.0,999.4,17.4,59.0,0,0
2016-05-11 22:35:00,11.3,11.3,11.3,87.0,9.2,2.7,5.4,337.5,0.0,0.0,999.4,17.4,59.0,0,0